This is the latest recevied weather packets stored in our database for station/object W4SKW. If no packets are shown the sender has not sent any weather packets the latest 10 day(s).
| Time | Temp. | Humidity | Pressure | Rain* | Wind** | Luminosity | Snow |
|---|---|---|---|---|---|---|---|
| 1778005780 | 26.11° C | 45% | 1015.2 hPa | 0 mm | - | 718 W/m² | - |
| 1778005477 | 26.11° C | 51% | 1015.2 hPa | 0 mm | - | 603 W/m² | - |
| 1778005173 | 26.11° C | 45% | 1015.6 hPa | 0 mm | - | 770 W/m² | - |
| 1778004870 | 25.56° C | 45% | 1015.4 hPa | 0 mm | - | 843 W/m² | - |
| 1778004567 | 25.56° C | 48% | 1015.6 hPa | 0 mm | - | 720 W/m² | - |
| 1778004263 | 25.56° C | 46% | 1015.3 hPa | 0 mm | - | 540 W/m² | - |
| 1778003960 | 26.11° C | 51% | 1015.3 hPa | 0 mm | - | 673 W/m² | - |
| 1778003656 | 25.56° C | 55% | 1015.3 hPa | 0 mm | - | 679 W/m² | - |
| 1778003353 | 25.56° C | 51% | 1015.7 hPa | 0 mm | - | 651 W/m² | - |
| 1778003051 | 25.56° C | 47% | 1015.8 hPa | 0 mm | - | 713 W/m² | - |
| 1778002747 | 25.56° C | 48% | 1016 hPa | 0 mm | - | 784 W/m² | - |
| 1778002443 | 25° C | 48% | 1016.2 hPa | 0 mm | - | 606 W/m² | - |
| 1778002140 | 25° C | 53% | 1016.6 hPa | 0 mm | - | 751 W/m² | - |
| 1778001838 | 25° C | 53% | 1016.6 hPa | 0 mm | - | 751 W/m² | - |
| 1778001537 | 24.44° C | 49% | 1016.5 hPa | 0 mm | - | 771 W/m² | - |
| 1778001234 | 24.44° C | 50% | 1016.6 hPa | 0 mm | - | 754 W/m² | - |
| 1778000931 | 25.56° C | 47% | 1016.6 hPa | 0 mm | - | 447 W/m² | - |
| 1778000628 | 25° C | 50% | 1016.7 hPa | 0 mm | - | 784 W/m² | - |
| 1778000323 | 24.44° C | 49% | 1016.7 hPa | 0 mm | - | 770 W/m² | - |
| 1778000019 | 24.44° C | 49% | 1016.7 hPa | 0 mm | - | 770 W/m² | - |
| 1777999715 | 24.44° C | 52% | 1016.7 hPa | 0 mm | - | 755 W/m² | - |
| 1777999412 | 23.89° C | 50% | 1016.8 hPa | 0 mm | - | 768 W/m² | - |
| 1777999110 | 24.44° C | 55% | 1016.7 hPa | 0 mm | - | 757 W/m² | - |
| 1777998809 | 24.44° C | 54% | 1016.8 hPa | 0 mm | - | 732 W/m² | - |
| 1777998507 | 23.89° C | 52% | 1016.8 hPa | 0 mm | - | 727 W/m² | - |
* Rain latest hour (hover to see other rain measurements)
** Current wind speed in m/s (hover to see current wind gust speed)